#timestamp,LO_Frequency,Hit,StdDev 
1501711215.2,286047002.3,N,1.1
1501711235.0,286047002.5,N,1.1
1501711235.9,286047002.5,N,1.1
1501711255.8,286047000.1,N,1.1
1501711275.6,286046999.7,N,1.2
1501711295.4,286047002.4,N,1.2
1501711315.3,286046999.7,N,1.2
1501711335.1,286047001.8,N,1.2
1501711355.9,286047002.5,N,1.2
1501711375.7,286046999.9,N,1.2
1501711395.5,286046999.7,N,1.1
1501711415.4,286047001.7,N,1.1
1501711435.2,286047002.3,N,1.1
1501711455.1,286047001.7,N,1.1
1501711456.0,286047001.7,N,1.1
1501711475.8,286047002.8,N,1.1
1501711495.6,286047001.5,N,1.1
1501711515.5,286047002.2,N,1.1
1501711535.3,286047002.3,N,1.1
1501711555.2,286047001.3,N,1.1
1501711575.9,286047004.2,P,1.3
1501711595.7,286047001.8,N,1.2
1501711615.6,286047001.3,N,1.2
1501711635.4,286047002.0,N,1.0
1501711655.3,286047001.9,N,1.0
1501711675.1,286047001.9,N,0.9
1501711676.0,286047001.9,N,0.8
1501711695.8,286047002.0,N,0.8
1501711715.7,286047002.2,N,0.7
1501711735.5,286047002.0,N,0.7
1501711755.4,286047002.4,P,0.2
1501711775.2,286046998.1,P,2.0
1501711795.0,286047000.3,N,1.7
1501711795.9,286047000.3,N,1.5
1501711815.8,286047000.3,N,1.4
1501711835.6,286047000.7,N,1.3
1501711855.4,286047000.6,N,1.2
1501711875.3,286047000.5,N,1.2
1501711895.1,286046998.2,N,1.3
1501711915.9,286047000.3,N,1.2
1501711935.7,286047000.7,N,1.2
1501711955.5,286046999.7,N,1.2
1501711975.4,286047000.0,N,1.1
1501711995.2,286047001.1,N,1.1
1501712015.1,286047000.9,N,1.1
1501712016.0,286047000.9,N,1.1
1501712035.8,286047001.0,N,1.0
1501712055.6,286047000.9,N,1.0
1501712075.5,286047000.7,P,0.1
1501712095.3,286047000.1,N,0.2
1501712115.2,286046999.8,N,0.3
1501712135.0,286046999.9,N,0.3
1501712135.9,286046999.9,N,0.3
1501712155.8,286047002.5,P,1.2
1501712175.6,286047002.4,N,1.1
1501712195.4,286047001.2,N,1.0
1501712215.3,286047000.6,N,0.9
1501712235.1,286047000.0,N,1.0
1501712255.9,286047000.9,N,0.9
1501712275.7,286046999.8,N,1.0
1501712295.5,286046999.7,N,1.0
1501712315.4,286047000.2,N,1.0
1501712335.2,286047000.4,N,0.9
1501712355.1,286047000.4,N,0.9
1501712356.0,286047000.4,N,0.9
1501712375.8,286046999.7,N,0.9
1501712395.6,286047000.9,N,0.8
1501712415.5,286047000.2,N,0.8
1501712435.3,286047002.7,P,1.1
1501712455.2,286046999.7,N,1.3
1501712475.0,286046999.8,N,1.2
1501712475.9,286046999.8,N,1.1
1501712495.8,286047000.0,N,1.1
1501712515.6,286047002.7,N,1.3
1501712535.4,286047002.8,N,1.4
1501712555.3,286046999.8,N,1.3
1501712575.1,286046999.8,N,1.3
1501712595.8,286047000.4,N,1.3
1501712615.7,286047000.2,N,1.2
1501712635.5,286047000.9,N,1.2
1501712655.4,286047000.8,N,1.1
1501712675.2,286047000.7,N,1.1
1501712695.0,286047000.1,N,1.1
1501712696.0,286047000.1,N,1.0
1501712715.8,286047000.4,P,0.1
1501712735.6,286047000.8,P,0.2
1501712755.5,286047000.6,P,0.1
1501712775.3,286047001.0,P,0.2
1501712795.2,286046998.2,P,1.2
1501712815.9,286046999.9,N,1.1
1501712835.7,286047000.7,N,1.0
1501712855.6,286047000.9,N,1.0
1501712875.4,286047001.0,N,0.9
1501712895.3,286046999.9,N,0.9
1501712915.1,286047000.4,N,0.8
1501712916.0,286047000.4,N,0.8
1501712935.8,286047002.8,P,1.2
1501712955.7,286047000.8,N,1.1
1501712975.5,286046998.9,N,1.4
1501712995.4,286046999.0,N,1.4
1501713015.2,286047001.2,N,1.3
1501713035.0,286047000.3,N,1.2
1501713035.9,286047000.3,N,1.2
1501713055.8,286047000.3,N,1.1
1501713075.6,286046998.5,N,1.2
1501713095.4,286047000.7,N,1.1
1501713115.3,286047000.1,N,1.1
1501713135.1,286047000.5,N,1.1
1501713155.9,286047000.5,N,1.0
1501713175.7,286047000.6,N,1.0
1501713195.5,286046998.5,N,1.1
1501713215.4,286046999.0,N,1.1
1501713235.2,286046998.5,N,1.1
1501713255.1,286047001.2,N,1.1
1501713256.0,286047001.2,N,1.1
1501713275.8,286046998.9,N,1.1
1501713295.6,286046998.9,N,1.1
1501713315.5,286047001.1,N,1.1
1501713335.3,286046998.3,N,1.1
1501713355.2,286046998.1,N,1.2
1501713375.0,286047001.2,N,1.2
1501713375.9,286047001.2,N,1.2
1501713395.7,286047000.3,N,1.2
1501713415.6,286047000.4,N,1.1
1501713435.4,286047000.4,N,1.1
1501713455.3,286047000.5,N,1.1
1501713475.1,286046999.9,N,1.0
1501713495.8,286047000.5,N,1.0
1501713515.7,286047000.2,N,1.0
1501713535.5,286047002.5,N,1.1
1501713555.4,286047000.1,N,1.0
1501713575.2,286047002.4,N,1.1
1501713595.0,286047002.5,N,1.2
1501713595.9,286047002.5,N,1.3
1501713615.8,286047002.0,N,1.2
1501713635.6,286047002.3,N,1.3
1501713655.5,286047002.2,N,1.3
1501713675.3,286047000.2,N,1.3
1501713695.1,286047001.9,N,1.4
1501713715.9,286047002.8,N,1.4
1501713735.7,286047000.4,N,1.4
1501713755.6,286047000.9,N,1.3
1501713775.4,286047001.2,N,1.2
1501713795.2,286047000.8,N,1.2
1501713815.1,286046998.1,N,1.3
1501713816.0,286046998.1,N,1.4
1501713835.8,286046999.1,N,1.4
1501713855.7,286046999.0,N,1.4
1501713875.5,286046998.7,N,1.4
1501713895.3,286046998.8,N,1.3
1501713915.2,286046998.9,N,1.4
1501713935.0,286046999.4,N,1.4
1501713935.9,286046999.4,N,1.4
1501713955.8,286046999.0,N,1.4
1501713975.6,286046998.3,N,1.5
1501713995.4,286046999.2,N,1.5
1501714015.3,286046997.0,N,1.6
1501714035.1,286046997.4,N,1.7
1501714055.9,286046995.4,N,1.9
1501714075.7,286046995.0,N,2.0
1501714095.5,286046995.1,N,2.2
1501714115.4,286046995.8,N,2.2
1501714135.2,286046996.4,N,2.2
1501714155.1,286046995.7,N,2.2
1501714156.0,286046995.7,N,2.2
1501714175.8,286046993.3,P,2.7
1501714195.6,286046995.2,N,2.3
1501714215.5,286046995.9,N,2.0
1501714235.3,286046993.7,P,1.0
1501714255.2,286046998.6,N,2.0
1501714275.0,286046998.8,N,2.1
1501714275.9,286046998.8,N,2.1
1501714295.8,286047001.1,N,2.4
1501714315.6,286046998.3,N,2.2
1501714335.4,286046999.2,N,2.1
1501714355.3,286046999.3,N,2.0
1501714375.1,286046998.8,N,1.9
1501714395.8,286046999.0,N,1.9
1501714415.7,286046999.3,N,1.8
1501714435.5,286046999.6,N,1.8
1501714455.4,286046999.6,N,1.7
1501714475.2,286046997.0,N,1.7
1501714495.0,286046997.0,N,1.7
1501714495.9,286046997.0,N,1.7
1501714515.8,286046996.6,N,1.7
1501714535.6,286046997.5,N,1.6
1501714555.5,286046997.4,N,1.6
1501714575.3,286046995.4,N,1.7
1501714595.1,286046997.7,N,1.6
1501714615.9,286046998.0,N,1.6
1501714635.7,286046995.6,N,1.6
1501714655.6,286046996.9,N,1.6
1501714675.4,286046996.5,N,1.6
1501714695.2,286046997.1,N,1.6
1501714715.1,286046997.5,N,1.6
1501714716.0,286046997.5,N,1.5
1501714735.8,286046997.5,N,1.5
1501714755.7,286046997.7,N,1.5
1501714775.5,286046995.4,P,1.2
1501714795.3,286046999.4,N,1.6
